Location: ?ejeti?ky
(50.4060°N, 14.9016°E)
Time: 00:35:34
(UTC+00:00)

STARLINK-1282 - Pass Details

Date: 08 October 2020
Orbit: 549 x 551 km, 53.0° (Epoch: 27 October)

Event Time Altitude Azimuth Distance (km) Brightness Sun altitude
Exits shadow 03:44:11 27° 260° (W) 1,084 4.5 -14.8°
Maximum altitude 03:46:24 78° 343° (NNW) 568 3.6 -14.4°
Drops below altitude 10° 03:50:34 10° 71° (ENE) 1,828 7.6 -13.8°
Sets 03:52:48 0° 73° (ENE) 2,724 9.0 -13.4°
